Time,TemperatureF,DewpointF,PressureIn,WindDirection,WindDirectionDegrees,WindSpeedMPH,WindSpeedGustMPH,Humidity,HourlyPrecipIn,Conditions,Clouds,dailyrainin,SoftwareType,DateUTC
2013-03-16 00:07:00,27.0,23.0,30.18,North,0,0.0,0.0,85,-99.99,,,-99.99,,2013-03-16 06:07:00,
2013-03-16 00:17:00,27.0,23.0,30.18,North,0,0.0,0.0,86,-99.99,,,-99.99,,2013-03-16 06:17:00,
2013-03-16 00:22:00,27.0,23.0,30.18,NNW,330,5.0,0.0,87,-99.99,,,-99.99,,2013-03-16 06:22:00,
2013-03-16 00:27:00,26.0,23.0,30.18,NNW,340,0.0,5.0,87,-99.99,,,-99.99,,2013-03-16 06:27:00,
2013-03-16 00:32:00,26.0,23.0,30.17,NNW,340,0.0,0.0,86,-99.99,,,-99.99,,2013-03-16 06:32:00,
2013-03-16 00:42:00,26.0,23.0,30.17,NNW,340,0.0,0.0,87,-99.99,,,-99.99,,2013-03-16 06:42:00,
2013-03-16 00:52:00,26.0,23.0,30.17,NNW,340,0.0,0.0,88,-99.99,,,-99.99,,2013-03-16 06:52:00,
2013-03-16 00:57:00,26.0,23.0,30.17,NNW,340,0.0,0.0,88,-99.99,,,-99.99,,2013-03-16 06:57:00,
2013-03-16 01:07:00,26.0,23.0,30.16,NNW,340,0.0,0.0,88,-99.99,,,-99.99,,2013-03-16 07:07:00,
2013-03-16 01:16:00,25.0,23.0,30.16,NW,320,6.0,7.0,90,-99.99,,,-99.99,,2013-03-16 07:16:00,
2013-03-16 01:22:00,26.0,23.0,30.16,NNW,330,6.0,7.0,89,-99.99,,,-99.99,,2013-03-16 07:22:00,
2013-03-16 01:27:00,26.0,23.0,30.16,NW,320,0.0,8.0,89,-99.99,,,-99.99,,2013-03-16 07:27:00,
2013-03-16 01:32:00,26.0,23.0,30.15,NNW,330,6.0,7.0,89,-99.99,,,-99.99,,2013-03-16 07:32:00,
2013-03-16 01:37:00,26.0,23.0,30.15,NNW,340,8.0,8.0,90,-99.99,,,-99.99,,2013-03-16 07:37:00,
2013-03-16 01:47:00,26.0,23.0,30.15,North,10,5.0,8.0,90,-99.99,,,-99.99,,2013-03-16 07:47:00,
2013-03-16 01:52:00,26.0,23.0,30.15,NE,40,4.0,7.0,89,-99.99,,,-99.99,,2013-03-16 07:52:00,
2013-03-16 01:57:00,26.0,23.0,30.15,NNW,330,3.0,7.0,89,-99.99,,,-99.99,,2013-03-16 07:57:00,
2013-03-16 02:02:00,25.0,23.0,30.15,WNW,290,8.0,8.0,90,-99.99,,,-99.99,,2013-03-16 08:02:00,
2013-03-16 02:07:00,25.0,23.0,30.14,WNW,300,9.0,9.0,90,-99.99,,,-99.99,,2013-03-16 08:07:00,
2013-03-16 02:17:00,25.0,23.0,30.15,NW,320,7.0,9.0,91,-99.99,,,-99.99,,2013-03-16 08:17:00,
2013-03-16 02:27:00,25.0,23.0,30.14,NNE,30,5.0,6.0,91,-99.99,,,-99.99,,2013-03-16 08:27:00,
2013-03-16 02:32:00,25.0,23.0,30.14,WNW,290,0.0,7.0,91,-99.99,,,-99.99,,2013-03-16 08:32:00,
2013-03-16 02:42:00,25.0,23.0,30.14,NNW,330,6.0,7.0,91,-99.99,,,-99.99,,2013-03-16 08:42:00,
2013-03-16 02:52:00,25.0,23.0,30.14,North,0,7.0,7.0,91,-99.99,,,-99.99,,2013-03-16 08:52:00,
2013-03-16 03:02:00,26.0,24.0,30.14,WNW,290,9.0,12.0,92,-99.99,,,-99.99,,2013-03-16 09:02:00,
2013-03-16 03:07:00,26.0,24.0,30.14,NW,310,7.0,12.0,91,-99.99,,,-99.99,,2013-03-16 09:07:00,
2013-03-16 03:12:00,27.0,24.0,30.14,NNE,20,0.0,8.0,90,-99.99,,,-99.99,,2013-03-16 09:12:00,
2013-03-16 03:17:00,26.0,24.0,30.13,ENE,60,3.0,6.0,90,-99.99,,,-99.99,,2013-03-16 09:17:00,
2013-03-16 03:27:00,26.0,24.0,30.12,ENE,60,0.0,5.0,91,-99.99,,,-99.99,,2013-03-16 09:27:00,
2013-03-16 03:32:00,26.0,23.0,30.12,ENE,60,0.0,0.0,91,-99.99,,,-99.99,,2013-03-16 09:32:00,
2013-03-16 03:42:00,26.0,24.0,30.12,WNW,300,5.0,8.0,91,-99.99,,,-99.99,,2013-03-16 09:42:00,
2013-03-16 03:52:00,26.0,23.0,30.12,North,10,4.0,7.0,91,-99.99,,,-99.99,,2013-03-16 09:52:00,
2013-03-16 03:57:00,26.0,24.0,30.12,WNW,300,5.0,7.0,90,-99.99,,,-99.99,,2013-03-16 09:57:00,
2013-03-16 04:02:00,26.0,23.0,30.11,NW,310,5.0,6.0,90,-99.99,,,-99.99,,2013-03-16 10:02:00,
2013-03-16 04:12:00,27.0,24.0,30.11,NW,320,8.0,8.0,91,-99.99,,,-99.99,,2013-03-16 10:12:00,
2013-03-16 04:17:00,27.0,24.0,30.10,NNW,330,8.0,8.0,90,-99.99,,,-99.99,,2013-03-16 10:17:00,
2013-03-16 04:27:00,27.0,25.0,30.09,NW,310,7.0,8.0,92,-99.99,,,-99.99,,2013-03-16 10:27:00,
2013-03-16 04:32:00,28.0,26.0,30.09,NNW,330,9.0,9.0,93,-99.99,,,-99.99,,2013-03-16 10:32:00,
2013-03-16 04:42:00,28.0,26.0,30.09,NW,310,8.0,10.0,93,-99.99,,,-99.99,,2013-03-16 10:42:00,
2013-03-16 04:47:00,29.0,27.0,30.09,NNW,340,8.0,8.0,93,-99.99,,,-99.99,,2013-03-16 10:47:00,
2013-03-16 04:57:00,29.0,27.0,30.09,NNW,340,10.0,10.0,92,-99.99,,,-99.99,,2013-03-16 10:57:00,
2013-03-16 05:07:00,29.0,26.0,30.09,NW,310,9.0,12.0,92,-99.99,,,-99.99,,2013-03-16 11:07:00,
2013-03-16 05:17:00,28.0,26.0,30.09,NW,310,7.0,11.0,92,-99.99,,,-99.99,,2013-03-16 11:17:00,
2013-03-16 05:22:00,29.0,27.0,30.09,NW,310,9.0,10.0,92,-99.99,,,-99.99,,2013-03-16 11:22:00,
2013-03-16 05:32:00,29.0,27.0,30.09,NW,310,6.0,9.0,92,-99.99,,,-99.99,,2013-03-16 11:32:00,
2013-03-16 05:37:00,29.0,26.0,30.09,NW,310,8.0,8.0,91,-99.99,,,-99.99,,2013-03-16 11:37:00,
2013-03-16 05:42:00,28.0,26.0,30.10,NNW,340,4.0,8.0,91,-99.99,,,-99.99,,2013-03-16 11:42:00,
2013-03-16 05:47:00,28.0,26.0,30.09,West,280,0.0,5.0,90,-99.99,,,-99.99,,2013-03-16 11:47:00,
2013-03-16 05:57:00,27.0,25.0,30.09,North,0,3.0,0.0,91,-99.99,,,-99.99,,2013-03-16 11:57:00,
2013-03-16 06:02:00,27.0,25.0,30.09,WNW,300,0.0,4.0,92,-99.99,,,-99.99,,2013-03-16 12:02:00,
2013-03-16 06:07:00,27.0,25.0,30.09,ENE,60,0.0,4.0,92,-99.99,,,-99.99,,2013-03-16 12:07:00,
2013-03-16 06:12:00,26.0,24.0,30.09,ENE,60,0.0,3.0,92,-99.99,,,-99.99,,2013-03-16 12:12:00,
2013-03-16 06:22:00,26.0,25.0,30.09,NNE,30,0.0,0.0,93,-99.99,,,-99.99,,2013-03-16 12:22:00,
2013-03-16 06:31:00,28.0,26.0,30.09,NNE,20,7.0,7.0,93,-99.99,,,-99.99,,2013-03-16 12:31:00,
2013-03-16 06:37:00,28.0,26.0,30.09,North,350,6.0,9.0,93,-99.99,,,-99.99,,2013-03-16 12:37:00,
2013-03-16 06:42:00,28.0,26.0,30.10,NNW,340,6.0,8.0,93,-99.99,,,-99.99,,2013-03-16 12:42:00,
2013-03-16 06:47:00,28.0,26.0,30.10,NNE,30,3.0,8.0,93,-99.99,,,-99.99,,2013-03-16 12:47:00,
2013-03-16 06:52:00,28.0,26.0,30.09,NNW,340,7.0,7.0,93,-99.99,,,-99.99,,2013-03-16 12:52:00,
2013-03-16 06:57:00,28.0,26.0,30.09,NNW,340,8.0,10.0,94,-99.99,,,-99.99,,2013-03-16 12:57:00,
2013-03-16 07:07:00,28.0,27.0,30.09,West,280,0.0,8.0,95,-99.99,,,-99.99,,2013-03-16 13:07:00,
2013-03-16 07:12:00,29.0,27.0,30.10,NW,310,0.0,6.0,95,-99.99,,,-99.99,,2013-03-16 13:12:00,
2013-03-16 07:22:00,28.0,27.0,30.09,WSW,240,0.0,3.0,95,-99.99,,,-99.99,,2013-03-16 13:22:00,
2013-03-16 07:32:00,29.0,27.0,30.09,WNW,300,0.0,5.0,95,-99.99,,,-99.99,,2013-03-16 13:32:00,
2013-03-16 07:37:00,29.0,27.0,30.10,NE,40,6.0,6.0,95,-99.99,,,-99.99,,2013-03-16 13:37:00,
2013-03-16 07:47:00,29.0,28.0,30.09,North,0,6.0,8.0,95,-99.99,,,-99.99,,2013-03-16 13:47:00,
2013-03-16 07:52:00,29.0,28.0,30.09,North,10,5.0,10.0,96,-99.99,,,-99.99,,2013-03-16 13:52:00,
2013-03-16 08:02:00,30.0,29.0,30.09,NNW,330,7.0,9.0,95,-99.99,,,-99.99,,2013-03-16 14:02:00,
2013-03-16 08:12:00,30.0,29.0,30.09,NNW,330,6.0,7.0,96,-99.99,,,-99.99,,2013-03-16 14:12:00,
2013-03-16 08:17:00,30.0,29.0,30.10,NW,310,9.0,9.0,95,-99.99,,,-99.99,,2013-03-16 14:17:00,
2013-03-16 08:22:00,30.0,29.0,30.10,WNW,300,9.0,10.0,96,-99.99,,,-99.99,,2013-03-16 14:22:00,
2013-03-16 08:27:00,31.0,30.0,30.11,NNW,340,7.0,11.0,98,-99.99,,,-99.99,,2013-03-16 14:27:00,
2013-03-16 08:36:00,31.0,31.0,30.11,NW,320,9.0,13.0,99,-99.99,,,-99.99,,2013-03-16 14:36:00,
2013-03-16 08:42:00,31.0,31.0,30.11,West,260,5.0,8.0,100,-99.99,,,-99.99,,2013-03-16 14:42:00,
2013-03-16 08:52:00,31.0,31.0,30.10,NW,320,7.0,7.0,100,-99.99,,,-99.99,,2013-03-16 14:52:00,
2013-03-16 09:02:00,31.0,31.0,30.10,WNW,300,9.0,9.0,100,-99.99,,,-99.99,,2013-03-16 15:02:00,
2013-03-16 09:07:00,31.0,31.0,30.11,NW,310,7.0,10.0,100,-99.99,,,-99.99,,2013-03-16 15:07:00,
2013-03-16 09:17:00,32.0,32.0,30.11,WNW,290,9.0,9.0,100,-99.99,,,-99.99,,2013-03-16 15:17:00,
2013-03-16 09:27:00,32.0,32.0,30.11,WNW,300,5.0,7.0,100,-99.99,,,-99.99,,2013-03-16 15:27:00,
2013-03-16 09:36:00,32.0,32.0,30.11,NW,320,3.0,6.0,100,-99.99,,,-99.99,,2013-03-16 15:36:00,
2013-03-16 09:42:00,32.0,32.0,30.11,WNW,300,0.0,5.0,100,-99.99,,,-99.99,,2013-03-16 15:42:00,
2013-03-16 09:52:00,32.0,32.0,30.11,West,270,0.0,2.0,100,-99.99,,,-99.99,,2013-03-16 15:52:00,
2013-03-16 09:57:00,32.0,32.0,30.11,West,270,0.0,0.0,100,-99.99,,,-99.99,,2013-03-16 15:57:00,
2013-03-16 10:07:00,33.0,33.0,30.11,West,270,0.0,0.0,100,-99.99,,,-99.99,,2013-03-16 16:07:00,
2013-03-16 10:12:00,34.0,33.0,30.11,NW,320,3.0,3.0,99,-99.99,,,-99.99,,2013-03-16 16:12:00,
2013-03-16 10:22:00,33.0,33.0,30.11,WNW,290,4.0,4.0,99,-99.99,,,-99.99,,2013-03-16 16:22:00,
2013-03-16 10:27:00,34.0,33.0,30.11,WNW,290,0.0,4.0,98,-99.99,,,-99.99,,2013-03-16 16:27:00,
2013-03-16 10:32:00,34.0,34.0,30.10,WNW,290,0.0,0.0,98,-99.99,,,-99.99,,2013-03-16 16:32:00,
2013-03-16 10:37:00,34.0,34.0,30.10,WNW,290,0.0,0.0,98,-99.99,,,-99.99,,2013-03-16 16:37:00,
2013-03-16 10:46:00,35.0,35.0,30.10,WNW,290,0.0,0.0,97,-99.99,,,-99.99,,2013-03-16 16:46:00,
2013-03-16 10:52:00,36.0,35.0,30.10,WNW,290,0.0,0.0,96,-99.99,,,-99.99,,2013-03-16 16:52:00,
2013-03-16 11:02:00,37.0,35.0,30.10,WNW,290,0.0,0.0,94,-99.99,,,-99.99,,2013-03-16 17:02:00,
2013-03-16 11:07:00,37.0,35.0,30.10,WNW,290,0.0,0.0,93,-99.99,,,-99.99,,2013-03-16 17:07:00,
2013-03-16 11:17:00,37.0,35.0,30.10,WNW,290,0.0,0.0,92,-99.99,,,-99.99,,2013-03-16 17:17:00,
2013-03-16 11:22:00,37.0,35.0,30.10,WNW,290,0.0,0.0,92,-99.99,,,-99.99,,2013-03-16 17:22:00,
2013-03-16 11:27:00,38.0,35.0,30.10,SSE,150,6.0,7.0,91,-99.99,,,-99.99,,2013-03-16 17:27:00,
2013-03-16 11:37:00,37.0,35.0,30.10,SSE,160,9.0,9.0,92,-99.99,,,-99.99,,2013-03-16 17:37:00,
2013-03-16 11:42:00,36.0,34.0,30.09,SSE,150,6.0,9.0,93,-99.99,,,-99.99,,2013-03-16 17:42:00,
2013-03-16 11:47:00,36.0,34.0,30.09,SE,140,8.0,8.0,93,-99.99,,,-99.99,,2013-03-16 17:47:00,
2013-03-16 11:57:00,36.0,34.0,30.09,SE,130,0.0,7.0,94,-99.99,,,-99.99,,2013-03-16 17:57:00,
2013-03-16 12:07:00,36.0,35.0,30.09,SSE,150,7.0,8.0,94,-99.99,,,-99.99,,2013-03-16 18:07:00,
2013-03-16 12:12:00,36.0,35.0,30.09,SSE,160,5.0,8.0,94,-99.99,,,-99.99,,2013-03-16 18:12:00,
2013-03-16 12:17:00,37.0,35.0,30.08,SSE,150,6.0,9.0,93,-99.99,,,-99.99,,2013-03-16 18:17:00,
2013-03-16 12:22:00,37.0,35.0,30.08,SSE,160,6.0,7.0,92,-99.99,,,-99.99,,2013-03-16 18:22:00,
2013-03-16 12:27:00,37.0,35.0,30.08,South,170,6.0,6.0,92,-99.99,,,-99.99,,2013-03-16 18:27:00,
2013-03-16 12:32:00,37.0,35.0,30.08,SSE,150,5.0,7.0,92,-99.99,,,-99.99,,2013-03-16 18:32:00,
2013-03-16 12:42:00,37.0,35.0,30.08,South,170,5.0,7.0,93,-99.99,,,-99.99,,2013-03-16 18:42:00,
2013-03-16 12:52:00,37.0,35.0,30.08,South,170,7.0,8.0,93,-99.99,,,-99.99,,2013-03-16 18:52:00,
2013-03-16 12:57:00,37.0,35.0,30.08,SSE,150,8.0,8.0,94,-99.99,,,-99.99,,2013-03-16 18:57:00,
2013-03-16 13:07:00,37.0,35.0,30.07,South,180,5.0,9.0,94,-99.99,,,-99.99,,2013-03-16 19:07:00,
2013-03-16 13:12:00,37.0,35.0,30.07,SSE,160,5.0,8.0,93,-99.99,,,-99.99,,2013-03-16 19:12:00,
2013-03-16 13:17:00,37.0,35.0,30.06,SSE,150,8.0,10.0,93,-99.99,,,-99.99,,2013-03-16 19:17:00,
2013-03-16 13:27:00,37.0,35.0,30.06,SSE,160,11.0,12.0,92,-99.99,,,-99.99,,2013-03-16 19:27:00,
2013-03-16 13:32:00,37.0,35.0,30.06,SSE,160,10.0,11.0,92,-99.99,,,-99.99,,2013-03-16 19:32:00,
2013-03-16 13:42:00,37.0,35.0,30.06,SSE,160,8.0,12.0,92,-99.99,,,-99.99,,2013-03-16 19:42:00,
2013-03-16 13:47:00,37.0,35.0,30.05,SE,140,9.0,10.0,92,-99.99,,,-99.99,,2013-03-16 19:47:00,
2013-03-16 13:52:00,36.0,34.0,30.06,SSE,160,13.0,13.0,93,-99.99,,,-99.99,,2013-03-16 19:52:00,
2013-03-16 14:07:00,35.0,34.0,30.05,SSE,150,9.0,12.0,95,-99.99,,,-99.99,,2013-03-16 20:07:00,
2013-03-16 14:12:00,35.0,34.0,30.05,SSE,150,8.0,12.0,95,-99.99,,,-99.99,,2013-03-16 20:12:00,
2013-03-16 14:22:00,35.0,33.0,30.04,SSE,160,10.0,11.0,95,-99.99,,,-99.99,,2013-03-16 20:22:00,
2013-03-16 14:32:00,35.0,34.0,30.03,South,180,4.0,9.0,95,-99.99,,,-99.99,,2013-03-16 20:32:00,
2013-03-16 14:37:00,35.0,34.0,30.03,SSE,160,6.0,8.0,95,-99.99,,,-99.99,,2013-03-16 20:37:00,
2013-03-16 14:42:00,35.0,34.0,30.03,SSE,160,7.0,10.0,95,-99.99,,,-99.99,,2013-03-16 20:42:00,
2013-03-16 14:47:00,36.0,34.0,30.03,SSE,160,5.0,10.0,95,-99.99,,,-99.99,,2013-03-16 20:47:00,
2013-03-16 14:56:00,37.0,35.0,30.02,South,170,10.0,11.0,94,-99.99,,,-99.99,,2013-03-16 20:56:00,
2013-03-16 15:02:00,37.0,36.0,30.02,SSE,160,10.0,10.0,94,-99.99,,,-99.99,,2013-03-16 21:02:00,
2013-03-16 15:07:00,37.0,36.0,30.01,SSE,160,10.0,11.0,93,-99.99,,,-99.99,,2013-03-16 21:07:00,
2013-03-16 15:17:00,37.0,35.0,30.01,SSE,160,11.0,11.0,93,-99.99,,,-99.99,,2013-03-16 21:17:00,
2013-03-16 15:27:00,36.0,34.0,30.02,SSE,150,9.0,13.0,94,-99.99,,,-99.99,,2013-03-16 21:27:00,
2013-03-16 15:37:00,36.0,34.0,30.01,SSE,150,9.0,12.0,94,-99.99,,,-99.99,,2013-03-16 21:37:00,
2013-03-16 15:42:00,36.0,34.0,30.01,SSE,160,9.0,12.0,94,-99.99,,,-99.99,,2013-03-16 21:42:00,
2013-03-16 15:52:00,36.0,35.0,30.01,South,170,11.0,15.0,94,-99.99,,,-99.99,,2013-03-16 21:52:00,
2013-03-16 16:02:00,36.0,34.0,30.01,SSE,150,11.0,13.0,94,-99.99,,,-99.99,,2013-03-16 22:02:00,
2013-03-16 16:12:00,36.0,34.0,30.01,SE,140,10.0,15.0,95,-99.99,,,-99.99,,2013-03-16 22:12:00,
2013-03-16 16:22:00,35.0,34.0,30.00,South,180,13.0,15.0,96,-99.99,,,-99.99,,2013-03-16 22:22:00,
2013-03-16 16:32:00,35.0,34.0,30.00,SSE,160,12.0,14.0,96,-99.99,,,-99.99,,2013-03-16 22:32:00,
2013-03-16 16:37:00,35.0,34.0,30.00,SSE,160,10.0,15.0,96,-99.99,,,-99.99,,2013-03-16 22:37:00,
2013-03-16 16:42:00,35.0,34.0,30.00,SSE,150,11.0,15.0,97,-99.99,,,-99.99,,2013-03-16 22:42:00,
2013-03-16 16:47:00,35.0,34.0,30.00,SE,140,11.0,14.0,97,-99.99,,,-99.99,,2013-03-16 22:47:00,
2013-03-16 16:52:00,35.0,34.0,30.00,SSE,160,11.0,15.0,97,-99.99,,,-99.99,,2013-03-16 22:52:00,
2013-03-16 16:57:00,35.0,34.0,30.00,SSE,160,10.0,14.0,97,-99.99,,,-99.99,,2013-03-16 22:57:00,
2013-03-16 17:02:00,35.0,34.0,29.99,South,170,13.0,13.0,97,-99.99,,,-99.99,,2013-03-16 23:02:00,
2013-03-16 17:12:00,34.0,34.0,29.99,SSE,160,9.0,11.0,97,-99.99,,,-99.99,,2013-03-16 23:12:00,
2013-03-16 17:17:00,34.0,34.0,29.99,South,170,13.0,13.0,97,-99.99,,,-99.99,,2013-03-16 23:17:00,
2013-03-16 17:27:00,34.0,33.0,29.99,SSE,160,7.0,12.0,98,-99.99,,,-99.99,,2013-03-16 23:27:00,
2013-03-16 17:32:00,34.0,34.0,30.00,ESE,120,3.0,9.0,98,-99.99,,,-99.99,,2013-03-16 23:32:00,
2013-03-16 17:37:00,34.0,34.0,30.00,East,90,0.0,8.0,98,-99.99,,,-99.99,,2013-03-16 23:37:00,
2013-03-16 17:47:00,34.0,33.0,30.01,East,90,0.0,0.0,98,-99.99,,,-99.99,,2013-03-16 23:47:00,
2013-03-16 17:52:00,34.0,33.0,30.01,East,90,0.0,0.0,98,-99.99,,,-99.99,,2013-03-16 23:52:00,
2013-03-16 18:02:00,34.0,33.0,30.01,North,350,8.0,8.0,98,-99.99,,,-99.99,,2013-03-17 00:02:00,
2013-03-16 18:12:00,32.0,32.0,30.02,WNW,300,11.0,12.0,98,-99.99,,,-99.99,,2013-03-17 00:12:00,
2013-03-16 18:22:00,32.0,31.0,30.02,WNW,300,13.0,14.0,99,-99.99,,,-99.99,,2013-03-17 00:22:00,
2013-03-16 18:32:00,32.0,31.0,30.03,West,270,5.0,10.0,100,-99.99,,,-99.99,,2013-03-17 00:32:00,
2013-03-16 18:37:00,31.0,31.0,30.03,West,280,9.0,9.0,100,-99.99,,,-99.99,,2013-03-17 00:37:00,
2013-03-16 18:52:00,31.0,31.0,30.03,WSW,250,3.0,8.0,100,-99.99,,,-99.99,,2013-03-17 00:52:00,
2013-03-16 18:57:00,31.0,31.0,30.02,WNW,290,5.0,7.0,100,-99.99,,,-99.99,,2013-03-17 00:57:00,
2013-03-16 19:07:00,31.0,31.0,30.03,North,10,3.0,6.0,100,-99.99,,,-99.99,,2013-03-17 01:07:00,
2013-03-16 19:17:00,31.0,31.0,30.02,NNW,340,0.0,0.0,100,-99.99,,,-99.99,,2013-03-17 01:17:00,
2013-03-16 19:32:00,31.0,31.0,30.01,NNW,340,0.0,0.0,100,-99.99,,,-99.99,,2013-03-17 01:32:00,
2013-03-16 19:37:00,31.0,31.0,30.01,NNW,340,0.0,0.0,100,-99.99,,,-99.99,,2013-03-17 01:37:00,
2013-03-16 19:47:00,30.0,30.0,30.00,NNW,340,0.0,0.0,100,-99.99,,,-99.99,,2013-03-17 01:47:00,
2013-03-16 19:52:00,31.0,31.0,30.00,NNW,340,0.0,0.0,100,-99.99,,,-99.99,,2013-03-17 01:52:00,
2013-03-16 19:57:00,31.0,30.0,30.01,West,260,7.0,7.0,100,-99.99,,,-99.99,,2013-03-17 01:57:00,
2013-03-16 20:02:00,31.0,31.0,30.02,WSW,250,5.0,6.0,100,-99.99,,,-99.99,,2013-03-17 02:02:00,
2013-03-16 20:07:00,30.0,30.0,30.03,WSW,240,0.0,6.0,100,-99.99,,,-99.99,,2013-03-17 02:07:00,
2013-03-16 20:17:00,31.0,31.0,30.03,WSW,240,0.0,0.0,100,-99.99,,,-99.99,,2013-03-17 02:17:00,
2013-03-16 20:27:00,31.0,31.0,30.04,WSW,240,0.0,0.0,100,-99.99,,,-99.99,,2013-03-17 02:27:00,
2013-03-16 20:32:00,31.0,31.0,30.04,WSW,240,0.0,0.0,100,-99.99,,,-99.99,,2013-03-17 02:32:00,
2013-03-16 20:42:00,31.0,31.0,30.02,SE,140,0.0,0.0,100,-99.99,,,-99.99,,2013-03-17 02:42:00,
2013-03-16 20:47:00,30.0,30.0,30.01,SE,140,0.0,4.0,100,-99.99,,,-99.99,,2013-03-17 02:47:00,
2013-03-16 20:52:00,31.0,31.0,30.01,SE,140,0.0,0.0,100,-99.99,,,-99.99,,2013-03-17 02:52:00,
2013-03-16 21:02:00,30.0,30.0,30.00,SE,140,0.0,0.0,100,-99.99,,,-99.99,,2013-03-17 03:02:00,
2013-03-16 21:12:00,30.0,30.0,30.00,SE,140,0.0,0.0,100,-99.99,,,-99.99,,2013-03-17 03:12:00,
2013-03-16 21:17:00,31.0,30.0,30.00,SE,140,0.0,0.0,99,-99.99,,,-99.99,,2013-03-17 03:17:00,
2013-03-16 21:27:00,30.0,30.0,30.01,SE,140,0.0,0.0,98,-99.99,,,-99.99,,2013-03-17 03:27:00,
2013-03-16 21:32:00,30.0,29.0,30.01,SE,140,0.0,0.0,98,-99.99,,,-99.99,,2013-03-17 03:32:00,
2013-03-16 21:42:00,30.0,29.0,30.01,SE,140,0.0,0.0,98,-99.99,,,-99.99,,2013-03-17 03:42:00,
2013-03-16 21:52:00,30.0,29.0,30.01,SE,140,0.0,0.0,98,-99.99,,,-99.99,,2013-03-17 03:52:00,
2013-03-16 21:57:00,29.0,29.0,30.01,SE,140,0.0,0.0,97,-99.99,,,-99.99,,2013-03-17 03:57:00,
2013-03-16 22:02:00,29.0,28.0,30.01,SE,140,0.0,0.0,96,-99.99,,,-99.99,,2013-03-17 04:02:00,
2013-03-16 22:07:00,28.0,28.0,30.01,SE,140,0.0,0.0,98,-99.99,,,-99.99,,2013-03-17 04:07:00,
2013-03-16 22:17:00,28.0,27.0,30.01,SE,140,0.0,0.0,97,-99.99,,,-99.99,,2013-03-17 04:17:00,
2013-03-16 22:26:00,27.0,27.0,30.02,SE,140,0.0,0.0,97,-99.99,,,-99.99,,2013-03-17 04:26:00,
2013-03-16 22:32:00,27.0,26.0,30.02,SE,140,0.0,0.0,97,-99.99,,,-99.99,,2013-03-17 04:32:00,
2013-03-16 22:37:00,27.0,26.0,30.02,SE,140,0.0,0.0,97,-99.99,,,-99.99,,2013-03-17 04:37:00,
2013-03-16 22:47:00,26.0,25.0,30.02,SE,140,0.0,0.0,97,-99.99,,,-99.99,,2013-03-17 04:47:00,
2013-03-16 22:52:00,26.0,25.0,30.02,SE,140,0.0,0.0,97,-99.99,,,-99.99,,2013-03-17 04:52:00,
2013-03-16 22:57:00,26.0,26.0,30.02,SE,140,0.0,0.0,98,-99.99,,,-99.99,,2013-03-17 04:57:00,
2013-03-16 23:07:00,26.0,25.0,30.02,West,280,8.0,0.0,97,-99.99,,,-99.99,,2013-03-17 05:07:00,
2013-03-16 23:17:00,26.0,26.0,30.02,NW,320,0.0,7.0,100,-99.99,,,-99.99,,2013-03-17 05:17:00,
2013-03-16 23:22:00,26.0,26.0,30.01,NE,50,6.0,6.0,100,-99.99,,,-99.99,,2013-03-17 05:22:00,
2013-03-16 23:32:00,26.0,26.0,30.01,ENE,60,0.0,0.0,100,-99.99,,,-99.99,,2013-03-17 05:32:00,
2013-03-16 23:37:00,27.0,27.0,30.00,ENE,60,0.0,0.0,100,-99.99,,,-99.99,,2013-03-17 05:37:00,
2013-03-16 23:47:00,27.0,27.0,29.99,ENE,60,0.0,0.0,100,-99.99,,,-99.99,,2013-03-17 05:47:00,
2013-03-16 23:57:00,27.0,27.0,30.00,ENE,60,0.0,0.0,100,-99.99,,,-99.99,,2013-03-17 05:57:00,